FLOCK 2P-5 (41616 NORAD) Tracking and Keplerian Element Data

This shows tracking and keplerian element data for the satellite.

Feedback or suggestion? Click here.




ElementValue
Catalog41616
NameFLOCK 2P-5
Epoch Orbit21337
Epoch Day114.84373267
Epoch Year2020
RAAN180.307
Inclination97.3324
Eccentricity0.0010128
Argument of Perigee23.8024
Mean Anonmoly336.3681
Mean Motion15.2679228
Decay Rate3.075E-05
L11 41616U 16040T 20114.84373267 .00003075 00000-0 11940-3 0 9990
L22 41616 97.3324 180.3070 0010128 23.8024 336.3681 15.26792280213376



Live tracking and technical data element details for FLOCK 2P-5 (NORAD 41616). FLOCK 2P-5 can be tracked NOW for your location showing map with azimuth and elevation plus other details from your city location.







IsCatalogInMostPopularTable: catalog: 41616, numindb: 508
Update: records affected: 1



GetName: 41616 FLOCK 2P-5

Hit Count: updated at: Sat, 07 Mar 2026 06:11:08 GMT